| time (UTC) | temp C | wind direction | speed KPH | gust KPH | rain 1hr cm | rain 24hr cm | rain mn cm | humidity % | barometer mb |
| 20260505031527 | 10 | 128 | 0.0 | 0.0 | 0.00 | 0.00 | 0.00 | 86 | 1010.3 |
| 20260505031027 | 10 | 89 | 0.0 | 0.0 | 0.00 | 0.00 | 0.00 | 86 | 1010.3 |
| 20260505030527 | 10 | 71 | 0.0 | 0.0 | 0.00 | 0.00 | 0.00 | 86 | 1010.3 |
| 20260505030029 | 10 | 71 | 0.0 | 0.0 | 0.00 | 0.00 | 0.00 | 86 | 1010.4 |
| 20260505025526 | 10 | 248 | 0.0 | 0.0 | 0.00 | 0.00 | 0.00 | 85 | 1010.4 |
| 20260505025026 | 10 | 140 | 0.0 | 0.0 | 0.00 | 0.00 | 0.00 | 85 | 1010.4 |
| 20260505024525 | 10 | 143 | 0.0 | 0.0 | 0.00 | 0.00 | 0.00 | 85 | 1010.4 |
| 20260505024025 | 10 | 49 | 0.0 | 0.0 | 0.00 | 0.00 | 0.00 | 85 | 1010.4 |
| 20260505023524 | 10 | 128 | 0.0 | 0.0 | 0.00 | 0.00 | 0.00 | 85 | 1010.4 |
| 20260505023024 | 10 | 15 | 0.0 | 0.0 | 0.00 | 0.00 | 0.00 | 84 | 1010.4 |
| 20260505022524 | 10 | 62 | 0.0 | 0.0 | 0.00 | 0.00 | 0.00 | 84 | 1010.4 |
| 20260505022023 | 10 | 72 | 0.0 | 0.0 | 0.00 | 0.00 | 0.00 | 84 | 1010.5 |
| 20260505021523 | 10 | 98 | 0.0 | 0.0 | 0.00 | 0.00 | 0.00 | 83 | 1010.5 |
| 20260505021023 | 10 | 53 | 0.0 | 0.0 | 0.00 | 0.00 | 0.00 | 83 | 1010.5 |
| 20260505020521 | 11 | 53 | 0.0 | 0.0 | 0.00 | 0.00 | 0.00 | 82 | 1010.5 |
| 20260505020022 | 11 | 80 | 0.0 | 0.0 | 0.00 | 0.00 | 0.00 | 82 | 1010.4 |
| 20260505015520 | 11 | 121 | 0.0 | 0.0 | 0.00 | 0.00 | 0.00 | 82 | 1010.5 |
| 20260505015020 | 11 | 297 | 0.0 | 0.0 | 0.00 | 0.00 | 0.00 | 81 | 1010.4 |
| 20260505014519 | 11 | 133 | 0.0 | 0.0 | 0.00 | 0.00 | 0.00 | 81 | 1010.5 |
| 20260505014021 | 11 | 68 | 0.0 | 0.0 | 0.00 | 0.00 | 0.00 | 81 | 1010.5 |
| 20260505013519 | 11 | 13 | 0.0 | 0.0 | 0.00 | 0.00 | 0.00 | 81 | 1010.4 |
| 20260505013017 | 11 | 103 | 0.0 | 0.0 | 0.00 | 0.00 | 0.00 | 80 | 1010.3 |
| 20260505012516 | 11 | 339 | 0.0 | 0.0 | 0.00 | 0.00 | 0.00 | 80 | 1010.3 |
| 20260505012016 | 11 | 38 | 0.0 | 0.0 | 0.00 | 0.00 | 0.00 | 80 | 1010.2 |
| 20260505011517 | 11 | 270 | 0.0 | 0.0 | 0.00 | 0.00 | 0.00 | 79 | 1010.0 |
| 20260505011014 | 11 | 223 | 0.0 | 0.0 | 0.00 | 0.00 | 0.00 | 79 | 1010.0 |
| 20260505010512 | 11 | 76 | 0.0 | 0.0 | 0.00 | 0.00 | 0.00 | 78 | 1009.9 |
| 20260505010015 | 11 | 19 | 0.0 | 0.0 | 0.00 | 0.00 | 0.00 | 78 | 1009.8 |
| 20260505005515 | 12 | 33 | 0.0 | 0.0 | 0.00 | 0.00 | 0.00 | 77 | 1009.6 |
| 20260505005013 | 12 | 89 | 0.0 | 0.0 | 0.00 | 0.00 | 0.00 | 77 | 1009.6 |
| 20260505004511 | 12 | 76 | 0.0 | 0.0 | 0.00 | 0.00 | 0.00 | 76 | 1009.5 |
| 20260505004011 | 12 | 223 | 0.0 | 1.6 | 0.00 | 0.00 | 0.00 | 76 | 1009.5 |
| 20260505003511 | 12 | 41 | 0.0 | 1.6 | 0.00 | 0.00 | 0.00 | 75 | 1009.4 |
| 20260505003018 | 12 | 11 | 0.0 | 0.0 | 0.00 | 0.00 | 0.00 | 74 | 1009.3 |
| 20260505002507 | 12 | 44 | 0.0 | 0.0 | 0.00 | 0.00 | 0.00 | 73 | 1009.2 |
| 20260505002006 | 12 | 76 | 0.0 | 0.0 | 0.00 | 0.00 | 0.00 | 72 | 1009.1 |
| 20260505001506 | 12 | 351 | 0.0 | 0.0 | 0.00 | 0.00 | 0.00 | 71 | 1009.0 |
| 20260505001004 | 13 | 77 | 0.0 | 0.0 | 0.00 | 0.00 | 0.00 | 70 | 1009.0 |
| 20260505000503 | 13 | 236 | 0.0 | 0.0 | 0.00 | 0.00 | 0.00 | 69 | 1008.8 |
| 20260505000005 | 13 | 46 | 0.0 | 0.0 | 0.00 | 0.00 | 0.00 | 69 | 1008.8 |
| 20260504235502 | 13 | 77 | 0.0 | 1.6 | 0.00 | 0.00 | 0.00 | 68 | 1008.6 |
| 20260504235101 | 13 | 243 | 0.0 | 1.6 | 0.00 | 0.00 | 0.00 | 67 | 1008.6 |
| 20260504234600 | 13 | 104 | 0.0 | 0.0 | 0.00 | 0.00 | 0.00 | 66 | 1008.5 |
| 20260504234058 | 13 | 103 | 0.0 | 0.0 | 0.00 | 0.00 | 0.00 | 64 | 1008.5 |
| 20260504233557 | 13 | 215 | 0.0 | 1.6 | 0.00 | 0.00 | 0.00 | 63 | 1008.5 |
| 20260504233108 | 13 | 115 | 0.0 | 1.6 | 0.00 | 0.00 | 0.00 | 62 | 1008.5 |
| 20260504232556 | 14 | 67 | 0.0 | 0.0 | 0.00 | 0.00 | 0.00 | 62 | 1008.4 |
| 20260504232054 | 14 | 278 | 0.0 | 0.0 | 0.00 | 0.00 | 0.00 | 61 | 1008.3 |
| 20260504231555 | 14 | 82 | 0.0 | 1.6 | 0.00 | 0.00 | 0.00 | 60 | 1008.2 |
| 20260504231054 | 15 | 114 | 0.0 | 1.6 | 0.00 | 0.00 | 0.00 | 59 | 1008.2 |
| 20260504230552 | 15 | 294 | 0.0 | 0.0 | 0.00 | 0.00 | 0.00 | 59 | 1008.1 |
| 20260504225550 | 15 | 90 | 0.0 | 0.0 | 0.00 | 0.00 | 0.00 | 59 | 1008.0 |
| 20260504225049 | 15 | 77 | 0.0 | 0.0 | 0.00 | 0.00 | 0.00 | 58 | 1008.0 |
| 20260504224551 | 15 | 221 | 0.0 | 0.0 | 0.00 | 0.00 | 0.00 | 56 | 1007.8 |
| 20260504224047 | 15 | 25 | 0.0 | 1.6 | 0.00 | 0.00 | 0.00 | 55 | 1007.8 |
| 20260504223546 | 16 | 134 | 0.0 | 1.6 | 0.00 | 0.00 | 0.00 | 53 | 1007.8 |
| 20260504223045 | 16 | 281 | 0.0 | 0.0 | 0.00 | 0.00 | 0.00 | 53 | 1007.7 |
| 20260504222543 | 17 | 30 | 0.0 | 0.0 | 0.00 | 0.00 | 0.00 | 52 | 1007.6 |
| 20260504222042 | 17 | 91 | 0.0 | 0.0 | 0.00 | 0.00 | 0.00 | 51 | 1007.6 |
| 20260504221540 | 17 | 97 | 0.0 | 0.0 | 0.00 | 0.00 | 0.00 | 50 | 1007.6 |
| 20260504221040 | 17 | 30 | 0.0 | 0.0 | 0.00 | 0.00 | 0.00 | 50 | 1007.5 |
| 20260504220539 | 17 | 208 | 0.0 | 0.0 | 0.00 | 0.00 | 0.00 | 49 | 1007.6 |
| 20260504215543 | 17 | 101 | 0.0 | 0.0 | 0.00 | 0.00 | 0.00 | 49 | 1007.6 |
| 20260504215037 | 18 | 49 | 0.0 | 0.0 | 0.00 | 0.00 | 0.00 | 49 | 1007.6 |
| 20260504214536 | 18 | 85 | 0.0 | 0.0 | 0.00 | 0.00 | 0.00 | 49 | 1007.5 |
| 20260504214036 | 18 | 93 | 0.0 | 0.0 | 0.00 | 0.00 | 0.00 | 48 | 1007.4 |
| 20260504213536 | 18 | 84 | 0.0 | 0.0 | 0.00 | 0.00 | 0.00 | 49 | 1007.5 |
| 20260504213034 | 18 | 61 | 0.0 | 0.0 | 0.00 | 0.00 | 0.00 | 48 | 1007.3 |
| 20260504212533 | 18 | 205 | 0.0 | 0.0 | 0.00 | 0.00 | 0.00 | 47 | 1007.4 |
| 20260504212036 | 18 | 30 | 0.0 | 0.0 | 0.00 | 0.00 | 0.00 | 48 | 1007.4 |
| 20260504211537 | 18 | 258 | 0.0 | 0.0 | 0.00 | 0.00 | 0.00 | 48 | 1007.4 |
| 20260504211032 | 18 | 79 | 0.0 | 0.0 | 0.00 | 0.00 | 0.00 | 48 | 1007.4 |
| 20260504210534 | 18 | 219 | 0.0 | 8.0 | 0.00 | 0.00 | 0.00 | 50 | 1007.3 |
| 20260504205531 | 18 | 105 | 0.0 | 8.0 | 0.00 | 0.00 | 0.00 | 48 | 1007.3 |
| 20260504205030 | 19 | 110 | 0.0 | 6.4 | 0.00 | 0.00 | 0.00 | 46 | 1007.4 |
| 20260504204533 | 20 | 207 | 0.0 | 1.6 | 0.00 | 0.00 | 0.00 | 46 | 1007.2 |
| 20260504204032 | 20 | 6 | 0.0 | 11.3 | 0.00 | 0.00 | 0.00 | 45 | 1007.2 |
| 20260504203529 | 19 | 136 | 0.0 | 11.3 | 0.00 | 0.00 | 0.00 | 45 | 1007.2 |
| 20260504203048 | 19 | 139 | 0.0 | 0.0 | 0.00 | 0.00 | 0.00 | 46 | 1007.2 |
| 20260504202528 | 19 | 96 | 0.0 | 0.0 | 0.00 | 0.00 | 0.00 | 45 | 1007.1 |
| 20260504202027 | 19 | 110 | 0.0 | 0.0 | 0.00 | 0.00 | 0.00 | 44 | 1007.1 |
| 20260504201528 | 19 | 65 | 0.0 | 3.2 | 0.00 | 0.00 | 0.00 | 43 | 1007.1 |
| 20260504201027 | 19 | 330 | 0.0 | 3.2 | 0.00 | 0.00 | 0.00 | 43 | 1007.1 |
| 20260504200526 | 19 | 109 | 0.0 | 3.2 | 0.00 | 0.00 | 0.00 | 44 | 1007.2 |
| 20260504195526 | 20 | 75 | 0.0 | 0.0 | 0.00 | 0.00 | 0.00 | 45 | 1007.1 |
| 20260504195027 | 20 | 164 | 0.0 | 0.0 | 0.00 | 0.00 | 0.00 | 43 | 1007.2 |
| 20260504194525 | 20 | 203 | 0.0 | 0.0 | 0.00 | 0.00 | 0.00 | 44 | 1007.2 |
| 20260504194024 | 20 | 155 | 0.0 | 3.2 | 0.00 | 0.00 | 0.00 | 41 | 1007.2 |
| 20260504193524 | 20 | 99 | 0.0 | 3.2 | 0.00 | 0.00 | 0.00 | 38 | 1007.2 |
| 20260504193023 | 20 | 6 | 0.0 | 0.0 | 0.00 | 0.00 | 0.00 | 36 | 1007.2 |
| 20260504192522 | 20 | 95 | 0.0 | 1.6 | 0.00 | 0.00 | 0.00 | 37 | 1007.2 |
| 20260504192023 | 20 | 282 | 0.0 | 1.6 | 0.00 | 0.00 | 0.00 | 36 | 1007.3 |
| 20260504191525 | 20 | 96 | 0.0 | 0.0 | 0.00 | 0.00 | 0.00 | 37 | 1007.2 |
| 20260504191021 | 20 | 39 | 0.0 | 8.0 | 0.00 | 0.00 | 0.00 | 36 | 1007.4 |
| 20260504190521 | 20 | 207 | 1.6 | 12.9 | 0.00 | 0.00 | 0.00 | 38 | 1007.3 |
| 20260504185524 | 20 | 116 | 0.0 | 4.8 | 0.00 | 0.00 | 0.00 | 35 | 1007.3 |
| 20260504185021 | 20 | 52 | 0.0 | 0.0 | 0.00 | 0.00 | 0.00 | 37 | 1007.3 |
| 20260504184521 | 20 | 315 | 0.0 | 0.0 | 0.00 | 0.00 | 0.00 | 36 | 1007.4 |
| 20260504184021 | 21 | 136 | 0.0 | 4.8 | 0.00 | 0.00 | 0.00 | 36 | 1007.4 |
| 20260504183520 | 21 | 79 | 0.0 | 4.8 | 0.00 | 0.00 | 0.00 | 35 | 1007.3 |
| 20260504183023 | 21 | 7 | 0.0 | 20.9 | 0.00 | 0.00 | 0.00 | 34 | 1007.4 |
| 20260504182526 | 21 | 91 | 1.6 | 20.9 | 0.00 | 0.00 | 0.00 | 34 | 1007.6 |
| 20260504182022 | 21 | 96 | 0.0 | 11.3 | 0.00 | 0.00 | 0.00 | 33 | 1007.6 |
| 20260504181517 | 21 | 64 | 1.6 | 11.3 | 0.00 | 0.00 | 0.00 | 32 | 1007.7 |
| 20260504181017 | 21 | 30 | 0.0 | 19.3 | 0.00 | 0.00 | 0.00 | 32 | 1007.7 |
| 20260504180520 | 21 | 296 | 0.0 | 16.1 | 0.00 | 0.00 | 0.00 | 31 | 1007.7 |
| 20260504175514 | 21 | 48 | 0.0 | 16.1 | 0.00 | 0.00 | 0.00 | 31 | 1007.7 |
| 20260504175014 | 21 | 241 | 1.6 | 9.7 | 0.00 | 0.00 | 0.00 | 31 | 1007.6 |
| 20260504174514 | 21 | 195 | 0.0 | 4.8 | 0.00 | 0.00 | 0.00 | 31 | 1007.7 |
| 20260504174014 | 21 | 243 | 0.0 | 1.6 | 0.00 | 0.00 | 0.00 | 31 | 1007.7 |
| 20260504173512 | 21 | 229 | 0.0 | 0.0 | 0.00 | 0.00 | 0.00 | 31 | 1007.6 |
| 20260504173013 | 21 | 32 | 0.0 | 0.0 | 0.00 | 0.00 | 0.00 | 30 | 1007.7 |
| 20260504172512 | 21 | 129 | 0.0 | 16.1 | 0.00 | 0.00 | 0.00 | 30 | 1007.8 |
| 20260504172012 | 20 | 191 | 1.6 | 16.1 | 0.00 | 0.00 | 0.00 | 30 | 1007.8 |
| 20260504171512 | 21 | 214 | 0.0 | 3.2 | 0.00 | 0.00 | 0.00 | 31 | 1007.7 |
| 20260504171014 | 21 | 269 | 0.0 | 22.5 | 0.00 | 0.00 | 0.00 | 31 | 1007.7 |
| 20260504170510 | 21 | 220 | 0.0 | 0.0 | 0.00 | 0.00 | 0.00 | 32 | 1007.9 |
| 20260504151049 | 18 | 228 | 0.0 | 3.2 | 0.00 | 0.00 | 0.00 | 35 | 1009.0 |
| 20260504150548 | 18 | 200 | 0.0 | 0.0 | 0.00 | 0.00 | 0.00 | 39 | 1008.9 |
| 20260504141039 | 17 | 237 | 0.0 | 0.0 | 0.00 | 0.00 | 0.00 | 41 | 1009.7 |
| 20260504140540 | 16 | 164 | 0.0 | 0.0 | 0.00 | 0.00 | 0.00 | 40 | 1009.7 |
| 20260504130529 | 14 | 236 | 0.0 | 0.0 | 0.00 | 0.00 | 0.00 | 49 | 1010.1 |
| 20260504110515 | 7 | 229 | 0.0 | 0.0 | 0.00 | 0.00 | 0.00 | 82 | 1010.3 |
| 20260504100558 | -17 | 0.0 | 0.0 | 0.00 | 0.00 | 0.00 | 1010.1 | ||
| 20260504081545 | 7 | 234 | 0.0 | 0.0 | 0.00 | 0.00 | 0.00 | 64 | 1009.9 |
| 20260504081040 | 7 | 247 | 0.0 | 0.0 | 0.00 | 0.00 | 0.00 | 64 | 1009.9 |
| 20260504080540 | 6 | 65 | 0.0 | 0.0 | 0.00 | 0.00 | 0.00 | 67 | 1009.8 |
| 20260504050532 | 5 | 253 | 0.0 | 0.0 | 0.00 | 0.00 | 0.00 | 65 | 1009.6 |
| 20260504045537 | 5 | 270 | 0.0 | 1.6 | 0.00 | 0.00 | 0.00 | 65 | 1009.7 |
| 20260504045032 | 5 | 139 | 0.0 | 1.6 | 0.00 | 0.00 | 0.00 | 65 | 1009.8 |
| 20260504044533 | 5 | 178 | 0.0 | 0.0 | 0.00 | 0.00 | 0.00 | 66 | 1009.8 |
| 20260504044035 | 5 | 258 | 0.0 | 0.0 | 0.00 | 0.00 | 0.00 | 67 | 1009.7 |
| 20260504043531 | 5 | 251 | 0.0 | 0.0 | 0.00 | 0.00 | 0.00 | 68 | 1009.7 |
| 20260504043031 | 5 | 251 | 0.0 | 0.0 | 0.00 | 0.00 | 0.00 | 67 | 1009.7 |
| 20260504042530 | 5 | 257 | 0.0 | 0.0 | 0.00 | 0.00 | 0.00 | 68 | 1009.6 |
| 20260504042031 | 5 | 257 | 0.0 | 0.0 | 0.00 | 0.00 | 0.00 | 67 | 1009.6 |
| 20260504041530 | 5 | 255 | 0.0 | 0.0 | 0.00 | 0.00 | 0.00 | 67 | 1009.6 |
| 20260504041029 | 5 | 253 | 0.0 | 0.0 | 0.00 | 0.00 | 0.00 | 66 | 1009.5 |
| 20260504040529 | 5 | 253 | 0.0 | 0.0 | 0.00 | 0.00 | 0.00 | 66 | 1009.6 |
| 20260504035529 | 5 | 209 | 0.0 | 0.0 | 0.00 | 0.00 | 0.00 | 66 | 1009.6 |
| 20260504035028 | 5 | 275 | 0.0 | 0.0 | 0.00 | 0.00 | 0.00 | 65 | 1009.5 |
| 20260504034528 | 6 | 275 | 0.0 | 0.0 | 0.00 | 0.00 | 0.00 | 65 | 1009.4 |
| 20260504034029 | 6 | 245 | 0.0 | 0.0 | 0.00 | 0.00 | 0.00 | 65 | 1009.3 |
| 20260504033527 | 6 | 245 | 0.0 | 0.0 | 0.00 | 0.00 | 0.00 | 65 | 1009.3 |
| 20260504033029 | 5 | 243 | 0.0 | 0.0 | 0.00 | 0.00 | 0.00 | 65 | 1009.3 |
| 20260504032527 | 5 | 272 | 0.0 | 0.0 | 0.00 | 0.00 | 0.00 | 67 | 1009.3 |
| 20260504032025 | 5 | 264 | 0.0 | 0.0 | 0.00 | 0.00 | 0.00 | 68 | 1009.2 |